Time,TemperatureF,DewpointF,PressureIn,WindDirection,WindDirectionDegrees,WindSpeedMPH,WindSpeedGustMPH,Humidity,HourlyPrecipIn,Conditions,Clouds,dailyrainin,SoftwareType,DateUTC
2013-01-16 00:00:00,43.0,39.4,30.05,North,0,0.0,0.0,87,0.02,,CLR,1.10,VWS V12.08,2013-01-16 05:00:00,
2013-01-16 00:01:00,43.0,39.4,30.05,North,0,0.0,0.0,87,0.02,,CLR,1.10,VWS V12.08,2013-01-16 05:01:00,
2013-01-16 00:06:00,43.0,39.4,30.05,NNW,338,0.0,0.0,87,0.02,,CLR,1.10,VWS V12.08,2013-01-16 05:06:00,
2013-01-16 00:11:00,43.2,39.6,30.04,NNW,338,0.0,0.0,87,0.02,,CLR,1.10,VWS V12.08,2013-01-16 05:11:00,
2013-01-16 00:16:00,43.2,39.6,30.04,NNW,338,0.0,0.0,87,0.02,,CLR,1.10,VWS V12.08,2013-01-16 05:16:00,
2013-01-16 00:21:00,43.2,39.6,30.04,NNW,338,0.0,0.0,87,0.02,,CLR,1.10,VWS V12.08,2013-01-16 05:21:00,
2013-01-16 00:26:00,43.2,39.6,30.05,NNW,338,0.0,0.0,87,0.02,,CLR,1.10,VWS V12.08,2013-01-16 05:26:00,
2013-01-16 00:31:00,43.2,39.6,30.05,NNW,338,0.0,0.0,87,0.02,,CLR,1.10,VWS V12.08,2013-01-16 05:31:00,
2013-01-16 00:36:00,43.2,39.6,30.04,North,0,0.0,0.0,87,0.02,,CLR,1.10,VWS V12.08,2013-01-16 05:36:00,
2013-01-16 00:41:00,43.2,39.6,30.04,North,0,0.0,0.0,87,0.02,,CLR,1.10,VWS V12.08,2013-01-16 05:41:00,
2013-01-16 00:46:00,43.3,39.7,30.03,North,0,0.0,0.0,87,0.02,,CLR,1.10,VWS V12.08,2013-01-16 05:46:00,
2013-01-16 00:51:00,43.3,39.7,30.03,NE,45,0.0,0.0,87,0.04,,CLR,1.12,VWS V12.08,2013-01-16 05:51:00,
2013-01-16 00:56:00,43.2,39.6,30.03,NE,45,0.0,0.0,87,0.04,,CLR,1.15,VWS V12.08,2013-01-16 05:56:00,
2013-01-16 01:01:00,43.2,39.6,30.03,NE,45,0.0,0.0,87,0.04,,CLR,1.15,VWS V12.08,2013-01-16 06:01:00,
2013-01-16 01:06:00,43.2,39.6,30.03,NE,45,0.0,0.0,87,0.04,,CLR,1.15,VWS V12.08,2013-01-16 06:06:00,
2013-01-16 01:11:00,43.2,39.6,30.03,NE,45,0.0,0.0,87,0.04,,CLR,1.15,VWS V12.08,2013-01-16 06:11:00,
2013-01-16 01:16:00,43.0,39.4,30.03,ENE,68,0.0,0.0,87,0.04,,CLR,1.15,VWS V12.08,2013-01-16 06:16:00,
2013-01-16 01:21:00,43.0,39.4,30.03,ENE,68,0.0,0.0,87,0.04,,CLR,1.15,VWS V12.08,2013-01-16 06:21:00,
2013-01-16 01:26:00,43.0,39.4,30.03,ENE,68,0.0,0.0,87,0.04,,CLR,1.15,VWS V12.08,2013-01-16 06:26:00,
2013-01-16 01:31:00,43.2,39.6,30.03,ENE,68,0.0,0.0,87,0.04,,CLR,1.15,VWS V12.08,2013-01-16 06:31:00,
2013-01-16 01:36:00,43.2,39.6,30.03,ENE,68,0.0,0.0,87,0.04,,CLR,1.15,VWS V12.08,2013-01-16 06:36:00,
2013-01-16 01:41:00,43.2,39.6,30.03,ENE,68,0.0,0.0,87,0.04,,CLR,1.15,VWS V12.08,2013-01-16 06:41:00,
2013-01-16 01:46:00,43.2,39.6,30.02,ENE,68,0.0,0.0,87,0.02,,CLR,1.15,VWS V12.08,2013-01-16 06:46:00,
2013-01-16 01:51:00,43.0,39.4,30.03,ENE,68,0.0,0.0,87,0.02,,CLR,1.15,VWS V12.08,2013-01-16 06:51:00,
2013-01-16 01:56:00,43.0,39.4,30.03,ENE,68,0.0,0.0,87,0.00,,CLR,1.15,VWS V12.08,2013-01-16 06:56:00,
2013-01-16 02:01:00,43.0,39.4,30.02,ENE,68,0.0,0.0,87,0.00,,CLR,1.08,VWS V12.08,2013-01-16 07:01:00,
2013-01-16 02:06:00,43.0,39.4,30.02,ENE,68,0.0,0.0,87,0.00,,CLR,1.08,VWS V12.08,2013-01-16 07:06:00,
2013-01-16 02:11:00,43.2,39.6,30.03,ENE,68,0.0,0.0,87,0.00,,CLR,1.08,VWS V12.08,2013-01-16 07:11:00,
2013-01-16 02:16:00,43.2,39.6,30.03,ENE,68,0.0,0.0,87,0.00,,CLR,1.08,VWS V12.08,2013-01-16 07:16:00,
2013-01-16 02:21:00,43.2,39.6,30.02,ENE,68,0.0,0.0,87,0.00,,CLR,1.08,VWS V12.08,2013-01-16 07:21:00,
2013-01-16 02:26:00,43.2,39.6,30.03,ENE,68,0.0,0.0,87,0.00,,CLR,1.08,VWS V12.08,2013-01-16 07:26:00,
2013-01-16 02:31:00,43.2,39.6,30.02,ENE,68,0.0,0.0,87,0.00,,CLR,1.08,VWS V12.08,2013-01-16 07:31:00,
2013-01-16 02:36:00,43.2,39.6,30.02,ENE,68,0.0,0.0,87,0.00,,CLR,1.08,VWS V12.08,2013-01-16 07:36:00,
2013-01-16 02:41:00,43.2,39.6,30.02,ENE,68,0.0,0.0,87,0.00,,CLR,1.08,VWS V12.08,2013-01-16 07:41:00,
2013-01-16 02:46:00,43.2,39.6,30.02,ENE,68,0.0,0.0,87,0.00,,CLR,1.08,VWS V12.08,2013-01-16 07:46:00,
2013-01-16 02:51:00,43.2,39.6,30.02,ENE,68,0.0,0.0,87,0.00,,CLR,1.08,VWS V12.08,2013-01-16 07:51:00,
2013-01-16 02:56:00,43.2,39.6,30.02,ENE,68,0.0,0.0,87,0.00,,CLR,1.08,VWS V12.08,2013-01-16 07:56:00,
2013-01-16 03:01:00,43.2,39.6,30.01,ENE,68,0.0,0.0,87,0.00,,CLR,1.02,VWS V12.08,2013-01-16 08:01:00,
2013-01-16 03:06:00,43.2,39.6,30.01,ENE,68,0.0,0.0,87,0.02,,CLR,1.04,VWS V12.08,2013-01-16 08:06:00,
2013-01-16 03:11:00,43.2,39.6,30.01,ENE,68,0.0,0.0,87,0.02,,CLR,1.04,VWS V12.08,2013-01-16 08:11:00,
2013-01-16 03:16:00,43.2,39.6,30.02,ENE,68,0.0,0.0,87,0.02,,CLR,1.04,VWS V12.08,2013-01-16 08:16:00,
2013-01-16 03:21:00,43.2,39.6,30.01,ENE,68,0.0,0.0,87,0.02,,CLR,1.04,VWS V12.08,2013-01-16 08:21:00,
2013-01-16 03:26:00,43.2,39.6,30.01,ENE,68,0.0,0.0,87,0.02,,CLR,1.04,VWS V12.08,2013-01-16 08:26:00,
2013-01-16 03:31:00,43.2,39.6,30.01,ENE,68,0.0,0.0,87,0.02,,CLR,1.04,VWS V12.08,2013-01-16 08:31:00,
2013-01-16 03:36:00,43.3,39.7,30.01,ENE,68,0.0,0.0,87,0.02,,CLR,1.04,VWS V12.08,2013-01-16 08:36:00,
2013-01-16 03:41:00,43.2,39.6,30.01,ENE,68,0.0,0.0,87,0.04,,CLR,1.06,VWS V12.08,2013-01-16 08:41:00,
2013-01-16 03:46:00,43.2,39.6,30.01,ENE,68,0.0,0.0,87,0.04,,CLR,1.06,VWS V12.08,2013-01-16 08:46:00,
2013-01-16 03:51:00,43.2,39.6,29.99,ENE,68,0.0,0.0,87,0.04,,CLR,1.06,VWS V12.08,2013-01-16 08:51:00,
2013-01-16 03:56:00,43.3,39.7,29.99,East,90,0.0,0.0,87,0.04,,CLR,1.06,VWS V12.08,2013-01-16 08:56:00,
2013-01-16 04:01:00,43.3,39.7,29.99,East,90,0.0,0.0,87,0.04,,CLR,1.02,VWS V12.08,2013-01-16 09:01:00,
2013-01-16 04:06:00,43.3,39.7,29.99,East,90,0.0,0.0,87,0.02,,CLR,1.02,VWS V12.08,2013-01-16 09:06:00,
2013-01-16 04:11:00,43.2,39.6,29.99,East,90,0.0,0.0,87,0.02,,CLR,1.02,VWS V12.08,2013-01-16 09:11:00,
2013-01-16 04:16:00,43.2,39.6,29.99,East,90,0.0,0.0,87,0.02,,CLR,1.02,VWS V12.08,2013-01-16 09:16:00,
2013-01-16 04:21:00,43.2,39.8,29.99,East,90,0.0,0.0,88,0.02,,CLR,1.02,VWS V12.08,2013-01-16 09:21:00,
2013-01-16 04:26:00,43.2,39.6,29.98,East,90,0.0,0.0,87,0.02,,CLR,1.02,VWS V12.08,2013-01-16 09:26:00,
2013-01-16 04:31:00,43.2,39.6,29.99,East,90,0.0,0.0,87,0.02,,CLR,1.02,VWS V12.08,2013-01-16 09:31:00,
2013-01-16 04:36:00,43.2,39.6,29.99,East,90,0.0,0.0,87,0.02,,CLR,1.02,VWS V12.08,2013-01-16 09:36:00,
2013-01-16 04:41:00,43.2,39.6,29.99,East,90,0.0,0.0,87,0.00,,CLR,1.02,VWS V12.08,2013-01-16 09:41:00,
2013-01-16 04:46:00,43.2,39.6,30.00,East,90,0.0,0.0,87,0.00,,CLR,1.02,VWS V12.08,2013-01-16 09:46:00,
2013-01-16 04:51:00,43.2,39.8,29.99,ENE,68,0.0,0.0,88,0.02,,CLR,1.04,VWS V12.08,2013-01-16 09:51:00,
2013-01-16 04:56:00,43.2,39.8,29.99,ENE,68,0.0,0.0,88,0.02,,CLR,1.04,VWS V12.08,2013-01-16 09:56:00,
2013-01-16 05:01:00,43.2,39.8,29.98,ENE,68,0.0,0.0,88,0.02,,CLR,0.99,VWS V12.08,2013-01-16 10:01:00,
2013-01-16 05:06:00,43.2,39.8,29.98,East,90,0.0,0.0,88,0.02,,CLR,0.99,VWS V12.08,2013-01-16 10:06:00,
2013-01-16 05:12:00,43.2,39.8,29.99,East,90,0.0,0.0,88,0.02,,CLR,0.99,VWS V12.08,2013-01-16 10:12:00,
2013-01-16 05:17:00,43.3,40.0,29.99,East,90,0.0,0.0,88,0.02,,CLR,0.99,VWS V12.08,2013-01-16 10:17:00,
2013-01-16 05:22:00,43.3,40.0,29.98,East,90,0.0,0.0,88,0.02,,CLR,0.99,VWS V12.08,2013-01-16 10:22:00,
2013-01-16 05:27:00,43.3,40.0,29.98,East,90,0.0,0.0,88,0.02,,CLR,0.99,VWS V12.08,2013-01-16 10:27:00,
2013-01-16 05:32:00,43.3,40.0,29.98,East,90,0.0,0.0,88,0.02,,CLR,0.99,VWS V12.08,2013-01-16 10:32:00,
2013-01-16 05:37:00,43.3,40.0,29.98,East,90,0.0,0.0,88,0.02,,CLR,0.99,VWS V12.08,2013-01-16 10:37:00,
2013-01-16 05:42:00,43.3,40.0,29.98,East,90,0.0,0.0,88,0.02,,CLR,0.99,VWS V12.08,2013-01-16 10:42:00,
2013-01-16 05:47:00,43.3,40.0,29.98,East,90,0.0,0.0,88,0.00,,CLR,0.99,VWS V12.08,2013-01-16 10:47:00,
2013-01-16 05:52:00,43.3,40.0,29.98,East,90,0.0,0.0,88,0.00,,CLR,0.99,VWS V12.08,2013-01-16 10:52:00,
2013-01-16 05:57:00,43.3,40.0,29.98,East,90,0.0,0.0,88,0.00,,CLR,0.99,VWS V12.08,2013-01-16 10:57:00,
2013-01-16 06:02:00,43.3,40.0,29.97,East,90,0.0,0.0,88,0.00,,CLR,0.97,VWS V12.08,2013-01-16 11:02:00,
2013-01-16 06:07:00,43.3,40.0,29.98,East,90,0.0,0.0,88,0.00,,CLR,0.97,VWS V12.08,2013-01-16 11:07:00,
2013-01-16 06:12:00,43.3,40.0,29.98,East,90,0.0,0.0,88,0.00,,CLR,0.97,VWS V12.08,2013-01-16 11:12:00,
2013-01-16 06:17:00,43.3,40.0,29.98,East,90,0.0,0.0,88,0.00,,CLR,0.97,VWS V12.08,2013-01-16 11:17:00,
2013-01-16 06:22:00,43.5,40.2,29.98,East,90,0.0,0.0,88,0.00,,CLR,0.97,VWS V12.08,2013-01-16 11:22:00,
2013-01-16 06:27:00,43.5,40.2,29.98,East,90,0.0,0.0,88,0.00,,CLR,0.97,VWS V12.08,2013-01-16 11:27:00,
2013-01-16 06:32:00,43.5,40.2,29.98,East,90,0.0,0.0,88,0.00,,CLR,0.97,VWS V12.08,2013-01-16 11:32:00,
2013-01-16 06:37:00,43.5,40.2,29.98,East,90,0.0,0.0,88,0.00,,CLR,0.97,VWS V12.08,2013-01-16 11:37:00,
2013-01-16 06:42:00,43.5,40.2,29.98,East,90,0.0,0.0,88,0.00,,CLR,0.97,VWS V12.08,2013-01-16 11:42:00,
2013-01-16 06:47:00,43.5,40.2,29.98,East,90,0.0,0.0,88,0.00,,CLR,0.97,VWS V12.08,2013-01-16 11:47:00,
2013-01-16 06:52:00,43.3,40.0,29.98,East,90,0.0,0.0,88,0.00,,CLR,0.97,VWS V12.08,2013-01-16 11:52:00,
2013-01-16 06:57:00,43.5,40.2,29.98,East,90,0.0,0.0,88,0.00,,CLR,0.97,VWS V12.08,2013-01-16 11:57:00,
2013-01-16 07:02:00,43.5,40.2,29.98,East,90,0.0,0.0,88,0.00,,CLR,0.73,VWS V12.08,2013-01-16 12:02:00,
2013-01-16 07:07:00,43.5,40.2,29.98,East,90,0.0,0.0,88,0.00,,CLR,0.73,VWS V12.08,2013-01-16 12:07:00,
2013-01-16 07:12:00,43.5,40.2,29.98,East,90,0.0,0.0,88,0.00,,CLR,0.73,VWS V12.08,2013-01-16 12:12:00,
2013-01-16 07:17:00,43.5,40.2,29.98,East,90,0.0,0.0,88,0.00,,CLR,0.73,VWS V12.08,2013-01-16 12:17:00,
2013-01-16 07:22:00,43.5,40.2,29.98,East,90,0.0,0.0,88,0.00,,CLR,0.73,VWS V12.08,2013-01-16 12:22:00,
2013-01-16 07:27:00,43.5,40.2,29.99,East,90,0.0,0.0,88,0.00,,CLR,0.73,VWS V12.08,2013-01-16 12:27:00,
2013-01-16 07:32:00,43.3,40.0,29.98,East,90,0.0,0.0,88,0.00,,CLR,0.73,VWS V12.08,2013-01-16 12:32:00,
2013-01-16 07:37:00,43.5,40.2,29.98,East,90,0.0,0.0,88,0.00,,CLR,0.73,VWS V12.08,2013-01-16 12:37:00,
2013-01-16 07:42:00,43.5,40.2,29.99,East,90,0.0,0.0,88,0.00,,CLR,0.73,VWS V12.08,2013-01-16 12:42:00,
2013-01-16 07:47:00,43.5,40.2,29.99,East,90,0.0,0.0,88,0.00,,CLR,0.73,VWS V12.08,2013-01-16 12:47:00,
2013-01-16 07:52:00,43.5,40.2,29.99,East,90,0.0,0.0,88,0.00,,CLR,0.73,VWS V12.08,2013-01-16 12:52:00,
2013-01-16 07:57:00,43.5,40.2,29.99,East,90,0.0,0.0,88,0.06,,CLR,0.80,VWS V12.08,2013-01-16 12:57:00,
2013-01-16 08:02:00,43.5,40.2,29.99,East,90,0.0,0.0,88,0.06,,CLR,0.76,VWS V12.08,2013-01-16 13:02:00,
2013-01-16 08:07:00,43.5,40.2,29.99,East,90,0.0,0.0,88,0.06,,CLR,0.76,VWS V12.08,2013-01-16 13:07:00,
2013-01-16 08:12:00,43.5,40.2,29.99,East,90,0.0,0.0,88,0.06,,CLR,0.76,VWS V12.08,2013-01-16 13:12:00,
2013-01-16 08:17:00,43.5,40.2,30.00,East,90,0.0,0.0,88,0.13,,CLR,0.82,VWS V12.08,2013-01-16 13:17:00,
2013-01-16 08:22:00,43.5,40.2,30.01,East,90,0.0,0.0,88,0.13,,CLR,0.82,VWS V12.08,2013-01-16 13:22:00,
2013-01-16 08:27:00,43.5,40.2,30.01,East,90,0.0,0.0,88,0.13,,CLR,0.82,VWS V12.08,2013-01-16 13:27:00,
2013-01-16 08:32:00,43.7,40.4,30.01,East,90,0.0,0.0,88,0.17,,CLR,0.86,VWS V12.08,2013-01-16 13:32:00,
2013-01-16 08:37:00,43.7,40.4,30.02,East,90,0.0,0.0,88,0.19,,CLR,0.89,VWS V12.08,2013-01-16 13:37:00,
2013-01-16 08:42:00,43.7,40.4,30.00,East,90,0.0,0.0,88,0.22,,CLR,0.91,VWS V12.08,2013-01-16 13:42:00,
2013-01-16 08:47:00,43.5,40.2,30.00,East,90,0.0,0.0,88,0.22,,CLR,0.91,VWS V12.08,2013-01-16 13:47:00,
2013-01-16 08:52:00,43.7,40.4,30.01,ENE,68,0.0,0.0,88,0.17,,CLR,0.93,VWS V12.08,2013-01-16 13:52:00,
2013-01-16 08:57:00,43.7,40.4,30.01,NNW,338,0.0,0.0,88,0.19,,CLR,0.95,VWS V12.08,2013-01-16 13:57:00,
2013-01-16 09:02:00,43.7,40.4,30.01,NNW,338,0.0,0.0,88,0.19,,CLR,0.93,VWS V12.08,2013-01-16 14:02:00,
2013-01-16 09:07:00,43.7,40.4,30.01,NNW,338,0.0,0.0,88,0.19,,CLR,0.93,VWS V12.08,2013-01-16 14:07:00,
2013-01-16 09:12:00,43.9,40.6,30.01,NNW,338,0.0,0.0,88,0.19,,CLR,0.93,VWS V12.08,2013-01-16 14:12:00,
2013-01-16 09:17:00,44.1,40.7,30.01,NNW,338,0.0,0.0,88,0.13,,CLR,0.93,VWS V12.08,2013-01-16 14:17:00,
2013-01-16 09:22:00,44.1,40.7,30.01,ENE,68,0.0,0.0,88,0.15,,CLR,0.95,VWS V12.08,2013-01-16 14:22:00,
2013-01-16 09:27:00,44.2,40.9,30.01,NNE,22,0.0,0.0,88,0.15,,CLR,0.95,VWS V12.08,2013-01-16 14:27:00,
2013-01-16 09:32:00,44.1,40.7,30.02,NW,315,0.0,0.0,88,0.09,,CLR,0.95,VWS V12.08,2013-01-16 14:32:00,
2013-01-16 09:37:00,44.2,40.9,30.01,NW,315,0.0,0.0,88,0.06,,CLR,0.95,VWS V12.08,2013-01-16 14:37:00,
2013-01-16 09:42:00,44.2,40.9,30.02,NW,315,0.0,0.0,88,0.06,,CLR,0.95,VWS V12.08,2013-01-16 14:42:00,
2013-01-16 09:47:00,44.2,40.9,30.03,NW,315,0.0,0.0,88,0.06,,CLR,0.95,VWS V12.08,2013-01-16 14:47:00,
2013-01-16 09:52:00,44.2,40.9,30.03,NW,315,0.0,0.0,88,0.02,,CLR,0.95,VWS V12.08,2013-01-16 14:52:00,
2013-01-16 09:57:00,44.2,40.9,30.04,NW,315,0.0,0.0,88,0.02,,CLR,0.95,VWS V12.08,2013-01-16 14:57:00,
2013-01-16 10:02:00,44.4,41.1,30.04,NW,315,0.0,0.0,88,0.02,,CLR,0.95,VWS V12.08,2013-01-16 15:02:00,
2013-01-16 10:07:00,44.2,40.9,30.04,WNW,292,2.9,2.9,88,0.02,,CLR,0.95,VWS V12.08,2013-01-16 15:07:00,
2013-01-16 10:12:00,44.2,40.9,30.04,NNE,22,0.0,2.9,88,0.02,,CLR,0.95,VWS V12.08,2013-01-16 15:12:00,
2013-01-16 10:17:00,44.2,40.9,30.04,East,90,0.0,2.9,88,0.02,,CLR,0.95,VWS V12.08,2013-01-16 15:17:00,
2013-01-16 10:22:00,44.4,41.1,30.03,East,90,0.0,0.0,88,0.00,,CLR,0.95,VWS V12.08,2013-01-16 15:22:00,
2013-01-16 10:27:00,44.4,41.1,30.03,East,90,0.0,0.0,88,0.00,,CLR,0.95,VWS V12.08,2013-01-16 15:27:00,
2013-01-16 10:32:00,44.6,41.3,30.03,East,90,0.0,0.0,88,0.02,,CLR,0.97,VWS V12.08,2013-01-16 15:32:00,
2013-01-16 10:37:00,44.8,41.5,30.03,East,90,0.0,0.0,88,0.02,,CLR,0.97,VWS V12.08,2013-01-16 15:37:00,
2013-01-16 10:42:00,45.0,41.6,30.03,East,90,0.0,0.0,88,0.02,,CLR,0.97,VWS V12.08,2013-01-16 15:42:00,
2013-01-16 10:47:00,45.0,41.6,30.03,East,90,0.0,0.0,88,0.02,,CLR,0.97,VWS V12.08,2013-01-16 15:47:00,
2013-01-16 10:52:00,45.1,41.8,30.03,East,90,0.0,0.0,88,0.02,,CLR,0.97,VWS V12.08,2013-01-16 15:52:00,
2013-01-16 10:57:00,45.3,42.0,30.03,North,0,0.0,0.0,88,0.02,,CLR,0.97,VWS V12.08,2013-01-16 15:57:00,
2013-01-16 11:02:00,45.5,42.2,30.02,WNW,292,0.0,0.0,88,0.02,,CLR,0.93,VWS V12.08,2013-01-16 16:02:00,
2013-01-16 11:07:00,45.7,42.3,30.01,WNW,292,0.0,0.0,88,0.02,,CLR,0.93,VWS V12.08,2013-01-16 16:07:00,
2013-01-16 11:12:00,45.7,42.3,30.01,NNE,22,0.0,0.0,88,0.02,,CLR,0.93,VWS V12.08,2013-01-16 16:12:00,
2013-01-16 11:17:00,46.0,42.7,30.01,NE,45,0.0,0.0,88,0.02,,CLR,0.93,VWS V12.08,2013-01-16 16:17:00,
2013-01-16 11:22:00,46.0,42.7,30.01,NE,45,0.0,0.0,88,0.02,,CLR,0.93,VWS V12.08,2013-01-16 16:22:00,
2013-01-16 11:27:00,46.2,42.9,30.00,NE,45,0.0,0.0,88,0.02,,CLR,0.93,VWS V12.08,2013-01-16 16:27:00,
2013-01-16 11:32:00,46.2,42.9,30.00,NE,45,0.0,0.0,88,0.00,,CLR,0.93,VWS V12.08,2013-01-16 16:32:00,
2013-01-16 11:37:00,46.2,42.9,29.99,NE,45,0.0,0.0,88,0.00,,CLR,0.93,VWS V12.08,2013-01-16 16:37:00,
2013-01-16 11:42:00,46.2,42.9,29.99,NE,45,0.0,0.0,88,0.02,,CLR,0.95,VWS V12.08,2013-01-16 16:42:00,
2013-01-16 11:47:00,46.6,43.2,29.99,NE,45,0.0,0.0,88,0.02,,CLR,0.95,VWS V12.08,2013-01-16 16:47:00,
2013-01-16 11:52:00,46.6,43.2,29.99,NW,315,0.0,0.0,88,0.02,,CLR,0.95,VWS V12.08,2013-01-16 16:52:00,
2013-01-16 11:57:00,46.6,43.2,29.99,WNW,292,0.0,0.0,88,0.02,,CLR,0.95,VWS V12.08,2013-01-16 16:57:00,
2013-01-16 12:02:00,46.6,42.9,29.99,WNW,292,0.0,0.0,87,0.02,,CLR,0.95,VWS V12.08,2013-01-16 17:02:00,
2013-01-16 12:07:00,46.6,42.9,29.98,WNW,292,0.0,0.0,87,0.02,,CLR,0.93,VWS V12.08,2013-01-16 17:07:00,
2013-01-16 12:12:00,46.6,42.9,29.98,NW,315,0.0,0.0,87,0.02,,CLR,0.93,VWS V12.08,2013-01-16 17:12:00,
2013-01-16 12:17:00,46.8,43.1,29.97,ENE,68,0.0,0.7,87,0.02,,CLR,0.93,VWS V12.08,2013-01-16 17:17:00,
2013-01-16 12:22:00,46.8,43.1,29.96,ENE,68,0.0,0.0,87,0.02,,CLR,0.93,VWS V12.08,2013-01-16 17:22:00,
2013-01-16 12:27:00,46.9,43.3,29.97,ENE,68,0.0,0.0,87,0.02,,CLR,0.93,VWS V12.08,2013-01-16 17:27:00,
2013-01-16 12:32:00,46.9,43.3,29.96,ENE,68,0.0,0.0,87,0.02,,CLR,0.93,VWS V12.08,2013-01-16 17:32:00,
2013-01-16 12:37:00,47.1,43.5,29.97,NW,315,0.0,0.0,87,0.00,,CLR,0.93,VWS V12.08,2013-01-16 17:37:00,
2013-01-16 12:42:00,47.3,43.6,29.96,NW,315,0.0,0.0,87,0.00,,CLR,0.93,VWS V12.08,2013-01-16 17:42:00,
2013-01-16 12:47:00,47.3,43.6,29.96,NW,315,0.0,0.0,87,0.00,,CLR,0.93,VWS V12.08,2013-01-16 17:47:00,
2013-01-16 12:52:00,47.3,43.6,29.96,NW,315,0.0,2.2,87,0.00,,CLR,0.93,VWS V12.08,2013-01-16 17:52:00,
2013-01-16 12:57:00,47.1,43.5,29.96,WNW,292,0.0,2.2,87,0.00,,CLR,0.93,VWS V12.08,2013-01-16 17:57:00,
2013-01-16 13:02:00,47.1,43.5,29.96,NE,45,0.0,0.0,87,0.00,,CLR,0.91,VWS V12.08,2013-01-16 18:02:00,
2013-01-16 13:07:00,47.1,43.5,29.96,NE,45,0.0,0.0,87,0.00,,CLR,0.91,VWS V12.08,2013-01-16 18:07:00,
2013-01-16 13:12:00,47.1,43.5,29.96,NE,45,0.0,0.0,87,0.00,,CLR,0.91,VWS V12.08,2013-01-16 18:12:00,
2013-01-16 13:17:00,47.1,43.5,29.96,NE,45,0.0,0.0,87,0.00,,CLR,0.91,VWS V12.08,2013-01-16 18:17:00,
2013-01-16 13:22:00,47.1,43.5,29.95,NE,45,0.0,0.0,87,0.00,,CLR,0.91,VWS V12.08,2013-01-16 18:22:00,
2013-01-16 13:27:00,47.3,43.6,29.96,NNW,338,0.0,0.0,87,0.00,,CLR,0.91,VWS V12.08,2013-01-16 18:27:00,
2013-01-16 13:32:00,47.5,43.8,29.96,NW,315,0.0,0.0,87,0.00,,CLR,0.91,VWS V12.08,2013-01-16 18:32:00,
2013-01-16 13:37:00,47.5,43.8,29.96,NW,315,0.0,1.6,87,0.00,,CLR,0.91,VWS V12.08,2013-01-16 18:37:00,
2013-01-16 13:42:00,47.7,44.0,29.96,NW,315,0.0,0.0,87,0.00,,CLR,0.91,VWS V12.08,2013-01-16 18:42:00,
2013-01-16 13:47:00,47.8,44.2,29.96,NW,315,0.0,0.0,87,0.00,,CLR,0.91,VWS V12.08,2013-01-16 18:47:00,
2013-01-16 13:52:00,48.0,44.3,29.96,NW,315,0.0,0.0,87,0.00,,CLR,0.91,VWS V12.08,2013-01-16 18:52:00,
2013-01-16 13:57:00,48.0,44.3,29.96,WNW,292,0.0,0.0,87,0.00,,CLR,0.91,VWS V12.08,2013-01-16 18:57:00,
2013-01-16 14:02:00,48.4,44.7,29.95,WNW,292,0.0,0.0,87,0.00,,CLR,0.89,VWS V12.08,2013-01-16 19:02:00,
2013-01-16 14:07:00,48.6,44.9,29.95,WNW,292,0.0,0.0,87,0.00,,CLR,0.89,VWS V12.08,2013-01-16 19:07:00,
2013-01-16 14:12:00,48.6,44.9,29.95,WNW,292,0.0,0.0,87,0.00,,CLR,0.89,VWS V12.08,2013-01-16 19:12:00,
2013-01-16 14:17:00,48.7,44.8,29.95,WNW,292,0.0,0.0,86,0.00,,CLR,0.89,VWS V12.08,2013-01-16 19:17:00,
2013-01-16 14:22:00,48.9,44.9,29.94,WNW,292,0.0,0.0,86,0.00,,CLR,0.89,VWS V12.08,2013-01-16 19:22:00,
2013-01-16 14:27:00,48.9,44.9,29.94,WNW,292,0.0,0.0,86,0.00,,CLR,0.89,VWS V12.08,2013-01-16 19:27:00,
2013-01-16 14:32:00,48.7,44.8,29.94,NNW,338,0.0,0.0,86,0.00,,CLR,0.89,VWS V12.08,2013-01-16 19:32:00,
2013-01-16 14:37:00,48.9,44.9,29.95,NNW,338,0.0,0.0,86,0.00,,CLR,0.89,VWS V12.08,2013-01-16 19:37:00,
2013-01-16 14:42:00,48.9,44.9,29.95,NNW,338,0.0,0.0,86,0.00,,CLR,0.89,VWS V12.08,2013-01-16 19:42:00,
2013-01-16 14:47:00,48.9,44.9,29.95,NNW,338,0.0,0.0,86,0.00,,CLR,0.89,VWS V12.08,2013-01-16 19:47:00,
2013-01-16 14:52:00,49.1,45.1,29.95,NNW,338,0.0,0.0,86,0.00,,CLR,0.89,VWS V12.08,2013-01-16 19:52:00,
2013-01-16 14:57:00,48.9,44.9,29.96,NNW,338,0.0,0.0,86,0.00,,CLR,0.89,VWS V12.08,2013-01-16 19:57:00,
2013-01-16 15:02:00,48.9,44.9,29.96,WNW,292,0.0,0.0,86,0.00,,CLR,0.84,VWS V12.08,2013-01-16 20:02:00,
2013-01-16 15:07:00,48.9,44.9,29.96,NW,315,0.0,0.0,86,0.00,,CLR,0.84,VWS V12.08,2013-01-16 20:07:00,
2013-01-16 15:12:00,48.9,44.9,29.96,NW,315,0.0,0.0,86,0.00,,CLR,0.84,VWS V12.08,2013-01-16 20:12:00,
2013-01-16 15:17:00,48.9,44.9,29.96,NW,315,0.0,0.0,86,0.00,,CLR,0.84,VWS V12.08,2013-01-16 20:17:00,
2013-01-16 15:22:00,49.1,45.1,29.96,NW,315,0.0,0.0,86,0.00,,CLR,0.84,VWS V12.08,2013-01-16 20:22:00,
2013-01-16 15:27:00,49.6,45.6,29.96,NW,315,0.0,0.7,86,0.00,,CLR,0.84,VWS V12.08,2013-01-16 20:27:00,
2013-01-16 15:32:00,49.8,45.8,29.97,NW,315,0.0,0.7,86,0.00,,CLR,0.84,VWS V12.08,2013-01-16 20:32:00,
2013-01-16 15:37:00,49.8,45.8,29.96,West,270,0.0,0.7,86,0.00,,CLR,0.84,VWS V12.08,2013-01-16 20:37:00,
2013-01-16 15:42:00,49.8,45.8,29.96,WNW,292,0.0,0.0,86,0.00,,CLR,0.84,VWS V12.08,2013-01-16 20:42:00,
2013-01-16 15:47:00,49.8,45.8,29.96,WNW,292,0.0,0.0,86,0.00,,CLR,0.84,VWS V12.08,2013-01-16 20:47:00,
2013-01-16 15:52:00,49.6,45.6,29.96,WNW,292,0.0,0.0,86,0.00,,CLR,0.84,VWS V12.08,2013-01-16 20:52:00,
2013-01-16 15:57:00,49.6,45.6,29.97,WNW,292,0.0,0.0,86,0.00,,CLR,0.84,VWS V12.08,2013-01-16 20:57:00,
2013-01-16 16:02:00,49.6,45.6,29.97,WNW,292,0.0,0.0,86,0.00,,CLR,0.76,VWS V12.08,2013-01-16 21:02:00,
2013-01-16 16:07:00,49.6,45.6,29.97,WNW,292,0.0,0.0,86,0.00,,CLR,0.76,VWS V12.08,2013-01-16 21:07:00,
2013-01-16 16:12:00,49.6,45.6,29.97,WNW,292,0.0,0.0,86,0.00,,CLR,0.76,VWS V12.08,2013-01-16 21:12:00,
2013-01-16 16:17:00,49.6,45.6,29.98,NE,45,0.0,0.0,86,0.00,,CLR,0.76,VWS V12.08,2013-01-16 21:17:00,
2013-01-16 16:22:00,49.6,45.6,29.97,NE,45,0.0,0.0,86,0.00,,CLR,0.76,VWS V12.08,2013-01-16 21:22:00,
2013-01-16 16:27:00,49.6,45.6,29.97,NE,45,0.0,0.0,86,0.00,,CLR,0.76,VWS V12.08,2013-01-16 21:27:00,
2013-01-16 16:32:00,49.6,45.6,29.97,NE,45,0.0,0.0,86,0.00,,CLR,0.76,VWS V12.08,2013-01-16 21:32:00,
2013-01-16 16:37:00,49.6,45.6,29.97,NE,45,0.0,0.0,86,0.00,,CLR,0.76,VWS V12.08,2013-01-16 21:37:00,
2013-01-16 16:42:00,49.8,45.8,29.97,NE,45,0.0,0.0,86,0.00,,CLR,0.76,VWS V12.08,2013-01-16 21:42:00,
2013-01-16 16:47:00,49.6,45.6,29.97,NE,45,0.0,0.0,86,0.00,,CLR,0.76,VWS V12.08,2013-01-16 21:47:00,
2013-01-16 16:52:00,49.6,45.6,29.97,NE,45,0.0,0.0,86,0.00,,CLR,0.76,VWS V12.08,2013-01-16 21:52:00,
2013-01-16 16:57:00,49.6,45.6,29.97,NE,45,0.0,0.0,86,0.00,,CLR,0.76,VWS V12.08,2013-01-16 21:57:00,
2013-01-16 17:02:00,49.6,45.6,29.98,NE,45,0.0,0.0,86,0.00,,CLR,0.69,VWS V12.08,2013-01-16 22:02:00,
2013-01-16 17:07:00,49.6,45.6,29.97,NE,45,0.0,0.0,86,0.00,,CLR,0.69,VWS V12.08,2013-01-16 22:07:00,
2013-01-16 17:12:00,49.3,45.3,29.97,NE,45,0.0,0.0,86,0.00,,CLR,0.69,VWS V12.08,2013-01-16 22:12:00,
2013-01-16 17:17:00,49.3,45.3,29.97,NE,45,0.0,0.0,86,0.00,,CLR,0.69,VWS V12.08,2013-01-16 22:17:00,
2013-01-16 17:22:00,49.5,45.5,29.97,NE,45,0.0,0.0,86,0.00,,CLR,0.69,VWS V12.08,2013-01-16 22:22:00,
2013-01-16 17:27:00,49.5,45.5,29.97,NE,45,0.0,0.0,86,0.00,,CLR,0.69,VWS V12.08,2013-01-16 22:27:00,
2013-01-16 17:32:00,49.3,45.3,29.97,NE,45,0.0,0.0,86,0.00,,CLR,0.69,VWS V12.08,2013-01-16 22:32:00,
2013-01-16 17:37:00,49.3,45.3,29.98,NE,45,0.0,0.0,86,0.00,,CLR,0.69,VWS V12.08,2013-01-16 22:37:00,
2013-01-16 17:42:00,49.3,45.6,29.97,NE,45,0.0,0.0,87,0.00,,CLR,0.69,VWS V12.08,2013-01-16 22:42:00,
2013-01-16 17:47:00,49.3,45.6,29.98,NE,45,0.0,0.0,87,0.00,,CLR,0.69,VWS V12.08,2013-01-16 22:47:00,
2013-01-16 17:52:00,49.3,45.6,29.98,NE,45,0.0,0.0,87,0.00,,CLR,0.69,VWS V12.08,2013-01-16 22:52:00,
2013-01-16 17:57:00,49.3,45.6,29.98,NE,45,0.0,0.0,87,0.00,,CLR,0.69,VWS V12.08,2013-01-16 22:57:00,
2013-01-16 18:02:00,49.3,45.6,29.98,NE,45,0.0,0.0,87,0.00,,CLR,0.61,VWS V12.08,2013-01-16 23:02:00,
2013-01-16 18:07:00,49.1,45.4,29.98,NE,45,0.0,0.0,87,0.00,,CLR,0.61,VWS V12.08,2013-01-16 23:07:00,
2013-01-16 18:12:00,49.3,45.6,29.98,NE,45,0.0,0.0,87,0.00,,CLR,0.61,VWS V12.08,2013-01-16 23:12:00,
2013-01-16 18:17:00,49.3,45.6,29.98,NE,45,0.0,0.0,87,0.00,,CLR,0.61,VWS V12.08,2013-01-16 23:17:00,
2013-01-16 18:22:00,49.1,45.4,29.98,NE,45,0.0,0.0,87,0.00,,CLR,0.61,VWS V12.08,2013-01-16 23:22:00,
2013-01-16 18:27:00,49.1,45.4,29.98,NE,45,0.0,0.0,87,0.00,,CLR,0.61,VWS V12.08,2013-01-16 23:27:00,
2013-01-16 18:32:00,49.1,45.4,29.98,NE,45,0.0,0.0,87,0.00,,CLR,0.61,VWS V12.08,2013-01-16 23:32:00,
2013-01-16 18:37:00,49.1,45.4,29.98,NE,45,0.0,0.0,87,0.00,,CLR,0.61,VWS V12.08,2013-01-16 23:37:00,
2013-01-16 18:42:00,49.1,45.4,29.98,NE,45,0.0,0.0,87,0.00,,CLR,0.61,VWS V12.08,2013-01-16 23:42:00,
2013-01-16 18:47:00,49.3,45.6,29.98,NE,45,0.0,0.0,87,0.00,,CLR,0.61,VWS V12.08,2013-01-16 23:47:00,
2013-01-16 18:52:00,49.3,45.6,29.98,NE,45,0.0,0.0,87,0.00,,CLR,0.61,VWS V12.08,2013-01-16 23:52:00,
2013-01-16 18:57:00,49.3,45.6,29.97,NE,45,0.0,0.0,87,0.00,,CLR,0.61,VWS V12.08,2013-01-16 23:57:00,
2013-01-16 19:02:00,49.3,45.6,29.97,NE,45,0.0,0.0,87,0.00,,CLR,0.56,VWS V12.08,2013-01-17 00:02:00,
2013-01-16 19:07:00,49.3,45.6,29.97,NE,45,0.0,0.0,87,0.00,,CLR,0.56,VWS V12.08,2013-01-17 00:07:00,
2013-01-16 19:12:00,49.3,45.6,29.97,NE,45,0.0,0.0,87,0.00,,CLR,0.56,VWS V12.08,2013-01-17 00:12:00,
2013-01-16 19:17:00,49.3,45.6,29.96,NE,45,0.0,0.0,87,0.00,,CLR,0.56,VWS V12.08,2013-01-17 00:17:00,
2013-01-16 19:22:00,49.3,45.6,29.97,NE,45,0.0,0.0,87,0.00,,CLR,0.56,VWS V12.08,2013-01-17 00:22:00,
2013-01-16 19:27:00,49.3,45.6,29.97,NE,45,0.0,0.0,87,0.00,,CLR,0.56,VWS V12.08,2013-01-17 00:27:00,
2013-01-16 19:33:00,49.3,45.6,29.97,NE,45,0.0,0.0,87,0.00,,CLR,0.56,VWS V12.08,2013-01-17 00:33:00,
2013-01-16 19:38:00,49.3,45.6,29.97,NE,45,0.0,0.0,87,0.00,,CLR,0.56,VWS V12.08,2013-01-17 00:38:00,
2013-01-16 19:43:00,49.3,45.6,29.97,NE,45,0.0,0.0,87,0.00,,CLR,0.56,VWS V12.08,2013-01-17 00:43:00,
2013-01-16 19:48:00,49.3,45.9,29.97,NE,45,0.0,0.0,88,0.00,,CLR,0.56,VWS V12.08,2013-01-17 00:48:00,
2013-01-16 19:53:00,49.3,45.9,29.97,NE,45,0.0,0.0,88,0.00,,CLR,0.56,VWS V12.08,2013-01-17 00:53:00,
2013-01-16 19:58:00,49.3,45.9,29.98,North,0,0.0,0.0,88,0.00,,CLR,0.56,VWS V12.08,2013-01-17 00:58:00,
2013-01-16 20:03:00,49.3,45.9,29.98,North,0,0.0,0.0,88,0.00,,CLR,0.52,VWS V12.08,2013-01-17 01:03:00,
2013-01-16 20:08:00,49.5,46.1,29.98,North,0,0.0,0.0,88,0.00,,CLR,0.52,VWS V12.08,2013-01-17 01:08:00,
2013-01-16 20:13:00,49.3,45.9,29.98,North,0,0.0,0.0,88,0.00,,CLR,0.52,VWS V12.08,2013-01-17 01:13:00,
2013-01-16 20:18:00,49.3,45.9,29.99,North,0,0.0,0.0,88,0.00,,CLR,0.52,VWS V12.08,2013-01-17 01:18:00,
2013-01-16 20:23:00,49.3,45.9,29.98,ENE,68,0.0,0.0,88,0.00,,CLR,0.52,VWS V12.08,2013-01-17 01:23:00,
2013-01-16 20:28:00,49.3,45.9,29.98,ENE,68,0.0,0.0,88,0.00,,CLR,0.52,VWS V12.08,2013-01-17 01:28:00,
2013-01-16 20:33:00,49.5,46.1,29.97,ENE,68,0.0,0.0,88,0.00,,CLR,0.52,VWS V12.08,2013-01-17 01:33:00,
2013-01-16 20:38:00,49.6,46.2,29.97,ENE,68,0.0,0.0,88,0.00,,CLR,0.52,VWS V12.08,2013-01-17 01:38:00,
2013-01-16 20:43:00,49.6,46.2,29.96,ENE,68,0.0,0.0,88,0.00,,CLR,0.52,VWS V12.08,2013-01-17 01:43:00,
2013-01-16 20:48:00,49.6,46.2,29.96,ENE,68,0.0,0.0,88,0.00,,CLR,0.52,VWS V12.08,2013-01-17 01:48:00,
2013-01-16 20:53:00,49.6,46.2,29.96,ENE,68,0.0,0.0,88,0.00,,CLR,0.52,VWS V12.08,2013-01-17 01:53:00,
2013-01-16 20:58:00,49.6,46.2,29.96,ENE,68,0.0,0.0,88,0.00,,CLR,0.52,VWS V12.08,2013-01-17 01:58:00,
2013-01-16 21:03:00,49.6,46.2,29.96,ENE,68,0.0,0.0,88,0.00,,CLR,0.52,VWS V12.08,2013-01-17 02:03:00,
2013-01-16 21:08:00,49.6,46.2,29.96,ENE,68,0.0,0.0,88,0.00,,CLR,0.52,VWS V12.08,2013-01-17 02:08:00,
2013-01-16 21:13:00,49.5,46.1,29.96,ENE,68,0.0,0.0,88,0.00,,CLR,0.52,VWS V12.08,2013-01-17 02:13:00,
2013-01-16 21:18:00,49.6,46.2,29.96,ENE,68,0.0,0.0,88,0.00,,CLR,0.52,VWS V12.08,2013-01-17 02:18:00,
2013-01-16 21:23:00,49.6,46.2,29.97,ENE,68,0.0,0.0,88,0.00,,CLR,0.52,VWS V12.08,2013-01-17 02:23:00,
2013-01-16 21:28:00,49.6,46.2,29.97,ENE,68,0.0,0.0,88,0.00,,CLR,0.52,VWS V12.08,2013-01-17 02:28:00,
2013-01-16 21:33:00,49.6,46.2,29.97,ENE,68,0.0,0.0,88,0.00,,CLR,0.52,VWS V12.08,2013-01-17 02:33:00,
2013-01-16 21:38:00,49.6,46.2,29.96,ENE,68,0.0,0.0,88,0.00,,CLR,0.52,VWS V12.08,2013-01-17 02:38:00,
2013-01-16 21:43:00,49.6,46.2,29.97,ENE,68,0.0,0.0,88,0.00,,CLR,0.52,VWS V12.08,2013-01-17 02:43:00,
2013-01-16 21:48:00,49.6,46.2,29.97,ENE,68,0.0,0.0,88,0.00,,CLR,0.52,VWS V12.08,2013-01-17 02:48:00,
2013-01-16 21:53:00,49.6,46.2,29.97,ENE,68,0.0,0.0,88,0.00,,CLR,0.52,VWS V12.08,2013-01-17 02:53:00,
2013-01-16 21:58:00,49.6,46.2,29.98,ENE,68,0.0,0.0,88,0.00,,CLR,0.52,VWS V12.08,2013-01-17 02:58:00,
2013-01-16 22:03:00,49.6,46.2,29.97,ENE,68,0.0,0.0,88,0.00,,CLR,0.52,VWS V12.08,2013-01-17 03:03:00,
2013-01-16 22:08:00,49.6,46.2,29.97,NNE,22,0.0,0.0,88,0.00,,CLR,0.45,VWS V12.08,2013-01-17 03:08:00,
2013-01-16 22:13:00,49.6,46.5,29.98,NNE,22,0.0,0.0,89,0.00,,CLR,0.45,VWS V12.08,2013-01-17 03:13:00,
2013-01-16 22:18:00,49.6,46.5,29.97,NNE,22,0.0,0.0,89,0.00,,CLR,0.45,VWS V12.08,2013-01-17 03:18:00,
2013-01-16 22:23:00,49.6,46.5,29.97,NNE,22,0.0,0.0,89,0.00,,CLR,0.45,VWS V12.08,2013-01-17 03:23:00,
2013-01-16 22:28:00,49.6,46.5,29.97,NNE,22,0.0,0.0,89,0.00,,CLR,0.45,VWS V12.08,2013-01-17 03:28:00,
2013-01-16 22:33:00,49.6,46.5,29.98,NE,45,0.0,0.0,89,0.00,,CLR,0.45,VWS V12.08,2013-01-17 03:33:00,
2013-01-16 22:38:00,49.6,46.5,29.97,NE,45,0.0,0.0,89,0.02,,CLR,0.48,VWS V12.08,2013-01-17 03:38:00,
2013-01-16 22:43:00,49.6,46.5,29.97,NE,45,0.0,0.0,89,0.02,,CLR,0.48,VWS V12.08,2013-01-17 03:43:00,
2013-01-16 22:48:00,49.6,46.5,29.97,NE,45,0.0,0.0,89,0.02,,CLR,0.48,VWS V12.08,2013-01-17 03:48:00,
2013-01-16 22:53:00,49.6,46.5,29.98,NE,45,0.0,0.0,89,0.02,,CLR,0.48,VWS V12.08,2013-01-17 03:53:00,
2013-01-16 22:58:00,49.6,46.5,29.97,NE,45,0.0,0.0,89,0.02,,CLR,0.48,VWS V12.08,2013-01-17 03:58:00,
2013-01-16 23:03:00,49.6,46.5,29.97,NE,45,0.0,0.0,89,0.02,,CLR,0.45,VWS V12.08,2013-01-17 04:03:00,
2013-01-16 23:08:00,49.6,46.5,29.97,NE,45,0.0,0.0,89,0.04,,CLR,0.48,VWS V12.08,2013-01-17 04:08:00,
2013-01-16 23:13:00,49.6,46.5,29.97,NE,45,0.0,0.0,89,0.04,,CLR,0.48,VWS V12.08,2013-01-17 04:13:00,
2013-01-16 23:18:00,49.6,46.5,29.97,ENE,68,0.0,0.0,89,0.04,,CLR,0.48,VWS V12.08,2013-01-17 04:18:00,
2013-01-16 23:23:00,49.6,46.5,29.97,ENE,68,0.0,0.0,89,0.06,,CLR,0.50,VWS V12.08,2013-01-17 04:23:00,
2013-01-16 23:28:00,49.6,46.5,29.95,ENE,68,0.0,0.0,89,0.06,,CLR,0.50,VWS V12.08,2013-01-17 04:28:00,
2013-01-16 23:33:00,49.6,46.5,29.96,ENE,68,0.0,0.0,89,0.06,,CLR,0.50,VWS V12.08,2013-01-17 04:33:00,
2013-01-16 23:38:00,49.6,46.5,29.96,ENE,68,0.0,0.0,89,0.06,,CLR,0.52,VWS V12.08,2013-01-17 04:38:00,
2013-01-16 23:43:00,49.6,46.5,29.96,ENE,68,0.0,0.0,89,0.06,,CLR,0.52,VWS V12.08,2013-01-17 04:43:00,
2013-01-16 23:48:00,49.6,46.5,29.96,ENE,68,0.0,0.0,89,0.09,,CLR,0.54,VWS V12.08,2013-01-17 04:48:00,
2013-01-16 23:53:00,49.8,46.7,29.96,ENE,68,0.0,0.0,89,0.09,,CLR,0.54,VWS V12.08,2013-01-17 04:53:00,
2013-01-16 23:58:00,49.8,46.7,29.96,ENE,68,0.0,0.0,89,0.09,,CLR,0.54,VWS V12.08,2013-01-17 04:58:00,